When you browse on this site, cookies collect data to enhance your experience and personalize the content and advertising you see.
Visit our Privacy Policy to learn more. By continuing to use the site, you agree to this use of cookies and data.
  • In Lithuania
  • List of Countries
  • For 7 days
  • Water Temperature
  • Satellite Maps
  • Weather Map
  • Weather Widgets
  • user-avatar
    Login

    Hourly Weather Kamarang

    Today, 20 January, Sunday

    Time Temperature Precipitation Wind Pressure Humidity
    00:00 +20°C° 0.2 mm 0 mps 714 mmHg 98%
    01:00 +20°C° 0.2 mm 0 mps 714 mmHg 98%
    02:00 +20°C° 0.2 mm 0 mps 714 mmHg 97%
    03:00 +20°C° 0.1 mm 0 mps 714 mmHg 98%
    04:00 +20°C° 0.1 mm 0 mps 714 mmHg 98%
    05:00 +20°C° 0.1 mm 0 mps 714 mmHg 98%
    06:00 +20°C° 0.1 mm 0 mps 714 mmHg 98%
    07:00 +20°C° 0.1 mm 0 mps 714 mmHg 97%
    08:00 +21°C° 0.1 mm 0 mps 715 mmHg 96%
    09:00 +22°C° 0.1 mm 0 mps 715 mmHg 87%
    10:00 +24°C° 0.1 mm 0 mps 715 mmHg 78%
    11:00 +28°C° 0.1 mm 1 mps 716 mmHg 69%
    12:00 +29°C° 0.1 mm 1 mps 715 mmHg 62%
    13:00 +31°C° 0.1 mm 1 mps 714 mmHg 55%
    14:00 +32°C° 0.1 mm 2 mps 713 mmHg 48%
    15:00 +31°C° 0.2 mm 2 mps 713 mmHg 54%
    16:00 +30°C° 0.2 mm 2 mps 712 mmHg 59%
    17:00 +29°C° 0.2 mm 2 mps 712 mmHg 64%
    18:00 +27°C° 0.1 mm 2 mps 712 mmHg 74%
    19:00 +25°C° 0.1 mm 1 mps 713 mmHg 83%
    20:00 +23°C° 0.1 mm 1 mps 713 mmHg 93%
    21:00 +23°C° 0.1 mm 1 mps 713 mmHg 94%
    22:00 +23°C° 0.1 mm 1 mps 714 mmHg 96%
    23:00 +22°C° 0.1 mm 1 mps 714 mmHg 97%

    Tomorrow, 21 January, Monday

    Time Temperature Precipitation Wind Pressure Humidity
    00:00 +20°C° 0.1 mm 0 mps 714 mmHg 97%
    01:00 +20°C° 0.1 mm 0 mps 714 mmHg 97%
    02:00 +20°C° 0.1 mm 0 mps 713 mmHg 97%
    03:00 +20°C° 0 mm 0 mps 713 mmHg 97%
    04:00 +20°C° 0 mm 0 mps 713 mmHg 98%
    05:00 +19°C° 0 mm 0 mps 713 mmHg 98%
    06:00 +20°C° 0 mm 0 mps 714 mmHg 96%
    07:00 +20°C° 0 mm 0 mps 715 mmHg 94%
    08:00 +21°C° 0 mm 0 mps 715 mmHg 92%
    09:00 +23°C° 0.1 mm 0 mps 716 mmHg 81%
    10:00 +27°C° 0.1 mm 1 mps 716 mmHg 71%
    11:00 +29°C° 0.1 mm 1 mps 716 mmHg 60%
    12:00 +30°C° 0.2 mm 1 mps 715 mmHg 58%
    13:00 +30°C° 0.2 mm 2 mps 714 mmHg 57%
    14:00 +31°C° 0.2 mm 2 mps 713 mmHg 55%
    15:00 +30°C° 0.3 mm 2 mps 713 mmHg 59%
    16:00 +29°C° 0.3 mm 2 mps 712 mmHg 62%
    17:00 +29°C° 0.3 mm 2 mps 712 mmHg 65%
    18:00 +27°C° 0.1 mm 2 mps 713 mmHg 75%
    19:00 +25°C° 0.1 mm 1 mps 713 mmHg 84%
    20:00 +23°C° 0.1 mm 1 mps 714 mmHg 94%
    21:00 +22°C° 0.1 mm 1 mps 714 mmHg 96%
    22:00 +20°C° 0.1 mm 0 mps 714 mmHg 97%
    23:00 +20°C° 0.1 mm 0 mps 715 mmHg 99%

    Day after tomorrow, 22 January, Tuesday

    Time Temperature Precipitation Wind Pressure Humidity
    00:00 +20°C° 0 mm 0 mps 714 mmHg 98%
    01:00 +19°C° 0 mm 0 mps 714 mmHg 98%
    02:00 +19°C° 0 mm 0 mps 714 mmHg 98%
    03:00 +19°C° 0 mm 0 mps 714 mmHg 98%
    04:00 +19°C° 0 mm 0 mps 714 mmHg 98%
    05:00 +18°C° 0 mm 0 mps 714 mmHg 98%
    06:00 +19°C° 0 mm 0 mps 714 mmHg 96%
    07:00 +19°C° 0 mm 0 mps 715 mmHg 94%
    08:00 +19°C° 0 mm 0 mps 715 mmHg 93%
    09:00 +23°C° 0 mm 1 mps 715 mmHg 82%
    10:00 +26°C° 0 mm 1 mps 716 mmHg 72%
    11:00 +28°C° 0 mm 1 mps 716 mmHg 61%
    12:00 +29°C° 0 mm 1 mps 715 mmHg 56%
    13:00 +30°C° 0 mm 1 mps 714 mmHg 50%
    14:00 +32°C° 0 mm 2 mps 713 mmHg 45%
    15:00 +31°C° 0 mm 2 mps 713 mmHg 47%
    16:00 +31°C° 0 mm 2 mps 712 mmHg 48%
    17:00 +30°C° 0 mm 2 mps 712 mmHg 50%
    18:00 +28°C° 0 mm 2 mps 713 mmHg 61%
    19:00 +26°C° 0 mm 1 mps 713 mmHg 72%
    20:00 +23°C° 0 mm 1 mps 713 mmHg 82%
    21:00 +23°C° 0.1 mm 1 mps 714 mmHg 86%
    22:00 +22°C° 0.1 mm 1 mps 714 mmHg 90%
    23:00 +20°C° 0.1 mm 0 mps 715 mmHg 94%

    23 January, Wednesday

    Time Temperature Precipitation Wind Pressure Humidity
    00:00 +20°C° 0.1 mm 0 mps 714 mmHg 95%
    01:00 +20°C° 0.1 mm 0 mps 714 mmHg 96%
    02:00 +20°C° 0.1 mm 0 mps 714 mmHg 97%
    03:00 +20°C° 0.2 mm 0 mps 714 mmHg 97%
    04:00 +19°C° 0.2 mm 0 mps 714 mmHg 98%
    05:00 +19°C° 0.2 mm 0 mps 714 mmHg 98%
    06:00 +20°C° 0.1 mm 0 mps 714 mmHg 97%
    07:00 +20°C° 0.1 mm 0 mps 715 mmHg 96%
    08:00 +20°C° 0.1 mm 0 mps 715 mmHg 95%
    09:00 +22°C° 0.1 mm 0 mps 716 mmHg 85%
    10:00 +26°C° 0.1 mm 1 mps 716 mmHg 74%
    11:00 +28°C° 0.1 mm 1 mps 716 mmHg 63%
    12:00 +29°C° 0 mm 1 mps 715 mmHg 58%
    13:00 +30°C° 0 mm 1 mps 714 mmHg 53%
    14:00 +31°C° 0 mm 1 mps 713 mmHg 47%
    15:00 +30°C° 0.1 mm 2 mps 713 mmHg 53%
    16:00 +29°C° 0.1 mm 2 mps 712 mmHg 59%
    17:00 +28°C° 0.1 mm 2 mps 712 mmHg 65%
    18:00 +26°C° 0.2 mm 2 mps 712 mmHg 75%
    19:00 +24°C° 0.2 mm 1 mps 713 mmHg 86%
    20:00 +22°C° 0.2 mm 1 mps 713 mmHg 96%
    21:00 +22°C° 0.5 mm 1 mps 714 mmHg 96%
    22:00 +22°C° 0.5 mm 1 mps 714 mmHg 97%
    23:00 +22°C° 0.5 mm 1 mps 714 mmHg 97%

    24 January, Thursday

    Time Temperature Precipitation Wind Pressure Humidity
    00:00 +22°C° 0.2 mm 1 mps 714 mmHg 98%
    01:00 +20°C° 0.2 mm 0 mps 714 mmHg 98%
    02:00 +19°C° 0.2 mm 0 mps 713 mmHg 98%
    03:00 +19°C° 0.1 mm 0 mps 713 mmHg 98%
    04:00 +19°C° 0.1 mm 0 mps 713 mmHg 98%
    05:00 +19°C° 0.1 mm 0 mps 713 mmHg 99%
    06:00 +19°C° 0 mm 0 mps 714 mmHg 97%
    07:00 +20°C° 0 mm 0 mps 714 mmHg 96%
    08:00 +20°C° 0 mm 0 mps 715 mmHg 94%
    09:00 +21°C° 0.1 mm 0 mps 715 mmHg 88%
    10:00 +22°C° 0.1 mm 0 mps 715 mmHg 82%
    11:00 +25°C° 0.1 mm 1 mps 715 mmHg 76%
    12:00 +27°C° 0.1 mm 1 mps 714 mmHg 68%
    13:00 +28°C° 0.1 mm 1 mps 713 mmHg 61%
    14:00 +30°C° 0.1 mm 2 mps 713 mmHg 54%
    15:00 +28°C° 0.2 mm 1 mps 713 mmHg 61%
    16:00 +27°C° 0.2 mm 1 mps 712 mmHg 69%
    17:00 +26°C° 0.2 mm 1 mps 712 mmHg 76%
    18:00 +24°C° 0.1 mm 1 mps 712 mmHg 81%
    19:00 +23°C° 0.1 mm 1 mps 713 mmHg 86%
    20:00 +20°C° 0.1 mm 0 mps 713 mmHg 92%
    21:00 +20°C° 0 mm 0 mps 713 mmHg 93%
    22:00 +20°C° 0 mm 0 mps 714 mmHg 94%
    23:00 +19°C° 0 mm 0 mps 714 mmHg 96%

    25 January, Friday

    Time Temperature Precipitation Wind Pressure Humidity
    00:00 +19°C° 0 mm 0 mps 714 mmHg 97%
    01:00 +18°C° 0 mm 0 mps 713 mmHg 98%
    02:00 +18°C° 0 mm 0 mps 713 mmHg 99%
    03:00 +18°C° 0 mm 0 mps 713 mmHg 98%
    04:00 +18°C° 0 mm 0 mps 713 mmHg 97%
    05:00 +19°C° 0 mm 0 mps 713 mmHg 97%
    06:00 +19°C° 0 mm 0 mps 714 mmHg 95%
    07:00 +19°C° 0 mm 0 mps 714 mmHg 93%
    08:00 +20°C° 0 mm 0 mps 714 mmHg 90%
    09:00 +21°C° 0 mm 0 mps 715 mmHg 83%
    10:00 +24°C° 0 mm 1 mps 715 mmHg 75%
    11:00 +26°C° 0 mm 1 mps 715 mmHg 68%
    12:00 +27°C° 0 mm 1 mps 714 mmHg 62%
    13:00 +29°C° 0 mm 1 mps 713 mmHg 56%
    14:00 +30°C° 0 mm 2 mps 713 mmHg 50%
    15:00 +30°C° 0 mm 2 mps 712 mmHg 52%
    16:00 +29°C° 0 mm 2 mps 712 mmHg 55%
    17:00 +29°C° 0 mm 2 mps 712 mmHg 58%
    18:00 +27°C° 0.1 mm 2 mps 712 mmHg 70%
    19:00 +24°C° 0.1 mm 1 mps 712 mmHg 83%
    20:00 +20°C° 0.1 mm 0 mps 712 mmHg 95%
    21:00 +20°C° 0.2 mm 0 mps 713 mmHg 96%
    22:00 +20°C° 0.2 mm 0 mps 713 mmHg 97%
    23:00 +20°C° 0.2 mm 0 mps 714 mmHg 98%
    Show more